Location: Middle Street
(51.7167°N, 0.0333°E)
Time: 00:55:08
(UTC+00:00)

Nadezhda 4 Rocket - Pass Details

Date: 20 January 2021
Orbit: 949 x 993 km, 82.9° (Epoch: 28 February)

Event Time Altitude Azimuth Distance (km) Brightness Sun altitude
Rises 18:55:30 0° 195° (SSW) 3,676 7.3 -22.3°
Reaches altitude 10° 18:58:02 10° 197° (SSW) 2,726 6.6 -22.7°
Maximum altitude 19:04:16 72° 282° (WNW) 1,022 4.2 -23.7°
Drops below altitude 10° 19:10:29 10° 7° (N) 2,713 6.2 -24.6°
Sets 19:13:00 0° 10° (N) 3,658 6.9 -25.0°
